This is the latest recevied weather packets stored in our database for station/object RN1M-13. If no packets are shown the sender has not sent any weather packets the latest 10 day(s).
| Time | Temp. | Humidity | Pressure | Rain* | Wind** | Luminosity | Snow |
|---|---|---|---|---|---|---|---|
| 1777950861 | 11.11° C | 100% | 997.4 hPa | - | - | - | - |
| 1777949961 | 10.56° C | 100% | 997.1 hPa | - | - | - | - |
| 1777949061 | 10.56° C | 100% | 997 hPa | - | - | - | - |
| 1777948161 | 11.11° C | 100% | 996.4 hPa | - | - | - | - |
| 1777947261 | 10° C | 100% | 996.3 hPa | - | - | - | - |
| 1777946363 | 10° C | 100% | 997.3 hPa | - | - | - | - |
| 1777945472 | 10.56° C | 100% | 995.9 hPa | - | - | - | - |
| 1777944572 | 10° C | 100% | 996 hPa | - | - | - | - |
| 1777943672 | 9.44° C | 100% | 996.3 hPa | - | - | - | - |
| 1777942772 | 10° C | 100% | 996.1 hPa | - | - | - | - |
| 1777941872 | 10° C | 100% | 995.7 hPa | - | - | - | - |
| 1777940971 | 10° C | 100% | 995.7 hPa | - | - | - | - |
| 1777940072 | 9.44° C | 100% | 995.8 hPa | - | - | - | - |
| 1777939171 | 10° C | 100% | 995.7 hPa | - | - | - | - |
| 1777938271 | 9.44° C | 100% | 995.7 hPa | - | - | - | - |
| 1777937371 | 9.44° C | 100% | 995.5 hPa | - | - | - | - |
| 1777936506 | 9.44° C | 100% | 995.6 hPa | - | - | - | - |
| 1777936471 | 9.44° C | 100% | 995.6 hPa | - | - | - | - |
| 1777935573 | 9.44° C | 100% | 996.8 hPa | - | - | - | - |
| 1777934681 | 10° C | 100% | 995.5 hPa | - | - | - | - |
| 1777933781 | 10° C | 100% | 995.1 hPa | - | - | - | - |
| 1777932880 | 9.44° C | 100% | 994.9 hPa | - | - | - | - |
| 1777931980 | 8.89° C | 100% | 994.7 hPa | - | - | - | - |
| 1777931080 | 10° C | 100% | 994.9 hPa | - | - | - | - |
| 1777930180 | 10° C | 100% | 995 hPa | - | - | - | - |
* Rain since midnight (hover to see other rain measurements)
** Current wind speed in m/s (hover to see current wind gust speed)